Weather in Mozhniakivka

Ukraine / Luhansk Region     49°39′42″N   39°03′38″E
temp.,
°C
wind,
m/s
gust,
m/s
humid.,
%
clouds,
%
prec.,
mm/h
press.,
hPa
HPBL,
m
22 april, thu
thu2200:00+7ssw337736 0.0 101837
03:00+7sw34819 0.1 101964
06:00+6sw24855 0.0 102069
09:00+12sw34655 0.0 1021598
12:00+16wsw454753 0.1 10212013
15:00+15sw2455100 0.1 1021314
18:00+15s225697 0.0 102142
21:00+11s22655 0.0 102210
23 april, fri
fri2300:00+10s226799 0.0 102114
03:00+10s117084 0.0 102111
06:00+9ssw227493 0.2 102131
09:00+13ssw34635 0.2 1021503
12:00+16sw56505 0.8 10191878
15:00+16sw4647100 0.8 10181643
18:00+15s475640 0.0 1016315
21:00+11s496594 0.0 1016172
24 april, sat
sat2400:00+10ssw31072100 0.0 1015251
03:00+9sw41178100 0.1 1014461
06:00+9s51082100 0.1 1013468
09:00+6w5887100 0.4 1014593
12:00+9w576285 0.1 10141448
15:00+12w8104393 0.7 10132335
18:00+10wsw795471 0.1 1014912
21:00+5w6108489 0.1 1016638
25 april, sun
sun2500:00+4w6117437 0.2 1017577
03:00+2w5109143 0.2 1018471
06:00+4w597482 0.0 1019713
09:00+7w68555 0.0 10201164
12:00+10w6840100 0.0 10202528
15:00+12w5735100 0.0 10192504
18:00+11wsw45425 0.0 10191134
21:00+7ssw22555 0.0 101921
26 april, mon
mon2600:00+5ssw22577 0.0 101927
03:00+4s336098 0.0 101842
06:00+4sw266697 0.0 1018163
09:00+9sw2362100 0.0 1017619
12:00+13ssw694394 0.0 10152110
15:00+9w101179100 0.6 10141155
18:00+5wnw6884100 0.2 1015892
21:00+4sw35885 0.3 1016119